Temperature
8 6 6 6 6 7 7 7 7 7 7 7 6 6 6 7 6 6 6 6 7 7 8 8 8 8 8 7 7 7 7 7 7 6 7 6 6 6 6 6 6 6 6 5
6 6 6 7 7 7 7 7 7 7 7 7 6 6 6 6 5 6 6 6 6 7 7 7 7 7 7 7 7 7 7 7 6 6 6 6 6 6 6 6 5 5 5 5
6 6 7 7 7 7 7 7 6 7 6 6 6 6 6 6 6 6 6 6 6 6 6 6 7 7 7 7 7 7 6 6 6 6 6 6 5 5 5 5 5 5 5 5
5 6 7 7 6 7 6 6 6 6 6 5 6 5 6 5 5 5 4 5 5 5 5 6 6 6 6 6 6 6 6 6 5 5 5 5 5 5 5 5 4 4 4 4
5 5 6 6 6 6 6 6 6 6 5 4 4 4 5 5 5 5 4 4 4 5 5 5 5 6 6 6 6 6 5 5 5 5 5 5 5 5 5 4 4 4 4 3
5 5 5 5 5 6 5 5 5 4 4 5 4 4 4 4 5 5 4 4 4 4 5 5 5 5 5 5 5 5 5 5 4 4 4 4 4 4 4 4 4 3 3 3
4 5 5 5 5 5 5 4 4 5 4 4 4 4 4 4 4 4 4 4 4 4 4 4 4 4 4 4 4 4 4 4 4 4 4 4 4 3 3 3 3 3 3 3
3 4 4 4 4 4 4 4 4 5 5 4 4 4 4 3 3 3 4 4 4 3 4 4 4 4 4 4 4 3 4 3 3 3 3 3 3 3 3 3 2 2 2 2
3 3 3 4 4 4 4 3 4 3 3 3 4 3 3 3 2 2 2 2 2 3 3 3 3 3 3 3 3 3 3 3 3 3 2 2 2 2 2 2 2 2 2 2
3 3 3 3 4 4 3 3 2 3 4 4 4 3 3 2 1 1 0 1 1 2 2 2 2 2 2 2 2 2 2 2 2 2 2 2 1 1 1 1 1 1 1 1
3 2 2 2 2 2 3 3 3 2 3 3 3 3 2 1 1 0 -0 1 1 1 1 1 1 2 2 2 2 2 2 1 1 1 1 1 1 1 0 0 0 0 0 0
2 2 1 2 2 2 2 2 2 2 2 1 2 2 1 -0 -0 -0 -0 0 1 1 1 1 1 1 1 1 1 1 1 1 1 1 1 0 0 0 -0 -0 -0 -0 -0 -1
2 1 2 2 2 1 1 1 1 1 1 1 1 2 -0 -1 -1 -1 -1 -1 -0 0 -0 -0 0 0 0 0 0 0 0 0 0 0 -0 -0 -0 -0 -1 -1 -1 -1 -1 -1
2 1 1 2 2 1 0 0 0 1 1 0 0 0 -1 -1 -2 -2 -2 -1 -1 -1 -1 -1 -1 -1 -1 -1 -1 -1 -1 -1 -1 -1 -1 -1 -1 -1 -1 -1 -2 -2 -2 -2
1 -0 0 1 1 0 -0 -0 -0 -0 -0 0 0 -1 -1 -2 -2 -2 -2 -2 -2 -2 -2 -2 -2 -2 -2 -1 -1 -1 -1 -1 -1 -1 -1 -1 -2 -2 -2 -2 -2 -3 -3 -3
-1 -1 -0 -0 0 -0 -1 -1 -1 -1 -1 -1 -1 -1 -2 -2 -2 -3 -3 -3 -3 -3 -3 -3 -3 -2 -2 -2 -2 -2 -2 -2 -2 -2 -2 -2 -2 -3 -3 -3 -3 -3 -4 -4
-2 -1 -1 -0 -0 -0 -1 -2 -2 -2 -3 -2 -2 -2 -3 -4 -4 -4 -4 -4 -4 -3 -3 -3 -3 -3 -3 -3 -3 -3 -3 -3 -3 -3 -3 -3 -3 -3 -3 -4 -4 -4 -4 -4
-2 -2 -2 -1 -1 -1 -1 -2 -2 -3 -3 -3 -3 -3 -4 -4 -4 -4 -4 -4 -4 -4 -3 -3 -4 -4 -3 -3 -3 -3 -3 -3 -3 -3 -4 -4 -4 -4 -4 -5 -5 -5 -5 -5
-2 -2 -2 -2 -2 -2 -2 -2 -3 -3 -3 -4 -4 -4 -5 -5 -5 -4 -4 -4 -4 -4 -4 -4 -4 -4 -4 -4 -4 -4 -4 -4 -4 -4 -4 -5 -5 -5 -5 -5 -5 -6 -6 -6
-3 -3 -3 -3 -2 -2 -2 -3 -3 -3 -3 -4 -5 -5 -6 -5 -5 -5 -4 -5 -5 -4 -4 -4 -4 -4 -5 -5 -5 -5 -5 -5 -5 -5 -5 -5 -5 -5 -6 -6 -6 -6 -6 -6
-4 -4 -4 -4 -3 -3 -4 -4 -3 -3 -3 -4 -5 -5 -5 -6 -5 -5 -5 -5 -5 -5 -5 -5 -5 -5 -5 -5 -5 -5 -5 -5 -5 -6 -6 -6 -6 -6 -6 -6 -7 -7 -7 -7
-4 -5 -5 -5 -4 -3 -5 -5 -4 -4 -4 -4 -4 -5 -5 -5 -6 -6 -6 -6 -6 -6 -6 -6 -6 -6 -6 -6 -6 -6 -6 -6 -6 -6 -6 -6 -7 -7 -7 -7 -7 -7 -8 -8
-5 -5 -5 -5 -4 -5 -5 -5 -4 -4 -4 -4 -5 -5 -6 -6 -6 -7 -7 -7 -7 -6 -6 -7 -7 -7 -7 -7 -7 -7 -7 -7 -7 -7 -7 -7 -7 -8 -8 -8 -8 -8 -8 -8
-6 -6 -6 -6 -6 -6 -5 -5 -5 -5 -5 -5 -5 -6 -6 -6 -7 -7 -7 -8 -8 -7 -7 -7 -7 -7 -7 -8 -8 -8 -8 -8 -8 -8 -8 -8 -8 -8 -8 -9 -9 -9 -9 -9
-6 -7 -7 -7 -7 -6 -6 -5 -5 -5 -6 -6 -6 -6 -7 -7 -7 -8 -8 -8 -8 -8 -8 -8 -8 -8 -8 -8 -8 -8 -8 -8 -8 -8 -9 -9 -9 -9 -9 -9 -9 -10 -9 -10
-7 -7 -7 -6 -6 -7 -6 -6 -6 -6 -6 -6 -7 -7 -7 -7 -8 -8 -9 -9 -9 -9 -9 -9 -9 -9 -9 -9 -9 -9 -9 -9 -9 -9 -9 -9 -10 -10 -10 -10 -10 -10 -10 -10
Wind_Speed
1 2 5 9 9 6 4 5 5 5 3 4 6 9 9 5 5 6 6 5 6 7 5 6 7 8 8 8 10 11 10 9 8 7 6 5 4 4 4 4 6 7 8 8
2 4 7 5 6 5 5 6 5 3 2 3 4 8 7 5 5 6 6 6 6 4 3 5 6 7 9 10 10 11 11 10 8 6 4 4 4 3 3 3 5 6 6 7
6 5 3 3 3 4 6 6 5 4 2 2 3 6 4 3 3 3 3 4 5 6 6 6 6 7 8 10 11 10 10 10 8 7 5 5 4 3 2 2 2 4 6 7
3 4 3 3 4 4 7 5 4 3 1 3 2 4 5 4 3 2 3 2 3 4 5 5 6 7 8 9 9 9 10 9 9 9 9 9 7 5 4 4 3 4 5 6
3 2 2 4 5 4 5 3 3 3 3 2 2 3 7 2 3 4 3 3 2 3 4 5 6 6 6 6 8 8 9 9 9 8 9 9 6 4 4 5 5 3 3 5
4 2 2 3 2 2 1 1 1 2 2 4 6 5 6 2 4 4 2 2 2 2 3 3 4 4 4 5 6 7 9 8 9 9 8 9 8 8 8 7 6 4 3 3
3 3 2 1 1 1 1 3 1 2 1 6 3 4 5 4 3 3 3 3 2 2 3 3 4 4 5 5 6 7 9 8 8 9 8 8 8 8 9 8 7 6 4 3
1 4 2 1 2 2 3 4 5 4 4 4 2 5 4 2 3 2 1 2 2 2 2 3 4 4 5 5 6 7 8 8 8 8 8 7 7 6 6 6 6 6 5 4
2 5 3 2 1 3 2 3 3 3 1 2 4 3 4 2 4 4 3 2 1 1 2 2 2 3 4 4 6 7 8 8 8 8 7 7 7 6 6 5 5 4 4 4
3 3 3 2 1 1 2 3 2 3 2 4 4 3 3 3 3 2 1 1 1 0 1 1 2 2 2 3 3 5 6 7 6 7 7 6 6 6 6 6 5 5 5 5
0 2 2 1 2 3 1 2 2 2 3 3 3 4 1 2 2 2 3 2 1 1 1 1 1 1 2 2 3 4 5 6 6 6 6 6 6 6 6 5 5 5 5 5
0 1 2 4 2 1 2 3 3 3 3 2 2 4 2 1 2 1 2 2 1 1 1 2 2 3 2 2 2 3 4 5 5 6 6 6 6 6 6 5 5 5 5 4
1 1 0 2 1 2 1 1 2 2 2 3 3 4 3 4 5 4 2 2 1 1 2 3 2 2 2 2 2 2 3 4 4 5 6 6 5 6 6 5 5 5 5 4
1 2 4 6 4 2 3 2 1 3 3 3 5 5 4 5 5 6 4 2 1 2 2 2 2 2 1 1 2 2 2 3 4 5 5 5 5 5 5 5 5 5 5 5
2 2 2 4 3 2 2 3 3 4 4 5 4 4 6 5 4 4 3 1 2 1 1 1 1 1 1 1 2 2 2 2 3 4 5 4 4 4 5 5 5 4 4 4
2 2 1 2 2 1 2 4 3 4 3 4 4 5 5 4 2 3 2 1 1 1 1 1 1 1 0 0 1 1 2 2 3 4 4 4 5 5 5 5 5 4 4 3
2 3 1 3 2 2 4 4 4 2 2 3 6 7 4 3 3 2 2 1 1 2 2 2 2 2 1 1 1 2 2 2 3 3 4 4 5 5 5 5 5 4 4 3
3 3 2 1 2 3 5 1 2 3 2 2 3 3 3 4 3 1 1 1 2 3 3 2 1 1 0 1 1 2 2 3 3 3 4 4 4 4 4 5 4 4 3 3
2 4 2 2 2 6 5 1 1 3 4 2 3 3 3 3 2 3 3 3 3 3 2 2 1 0 1 2 2 3 3 3 3 3 3 3 4 5 5 5 4 3 3 3
3 2 3 2 3 5 5 3 2 2 4 2 1 2 2 1 1 3 3 4 3 3 3 2 2 2 2 2 2 4 3 3 2 2 2 3 3 4 4 4 4 3 3 3
1 1 2 3 4 6 4 3 2 3 5 2 2 2 2 2 3 2 3 3 3 3 3 3 3 3 2 2 3 3 2 2 1 1 2 2 3 4 4 4 3 3 3 3
4 3 3 3 4 7 2 3 4 4 1 1 1 1 1 1 0 1 2 2 3 4 4 4 3 3 3 2 3 3 1 1 2 2 3 2 3 3 3 4 3 3 3 3
5 6 4 6 6 2 2 4 2 1 1 1 1 1 1 1 1 0 1 2 2 3 3 4 3 3 3 3 2 2 1 2 3 3 3 3 3 2 3 3 3 3 2 2
3 1 3 3 5 4 3 2 2 1 1 1 0 0 1 1 1 0 1 2 2 2 3 3 3 3 3 3 3 1 1 2 3 3 2 2 2 2 2 2 2 2 3 2
5 3 3 5 5 3 3 2 2 1 1 2 2 1 1 1 1 1 1 1 1 2 3 3 2 2 3 3 3 3 2 2 2 2 2 2 2 2 1 1 1 2 2 3
3 5 5 7 5 4 4 2 1 1 1 1 1 1 1 1 2 1 1 1 1 2 2 3 3 3 3 3 3 3 3 2 2 2 2 1 1 1 1 1 1 1 1 2
Wind_Direction
119 127 208 217 213 219 214 215 241 246 206 196 237 260 267 255 232 223 220 212 212 217 214 185 174 166 163 164 165 166 158 156 152 151 152 149 154 145 124 118 124 129 130 130
71 235 238 231 222 224 231 235 249 273 222 214 259 268 265 249 233 217 210 213 213 208 186 174 167 166 171 173 172 166 163 162 163 160 158 151 144 137 123 116 114 122 129 129
201 236 242 212 212 219 237 225 231 240 315 268 276 288 272 263 237 229 215 212 210 199 194 183 176 178 175 176 174 172 170 166 161 148 134 126 112 107 121 133 124 118 131 126
238 269 241 207 223 209 239 238 227 219 185 268 215 275 273 262 280 266 251 229 219 206 195 182 176 179 185 184 172 167 166 164 160 155 156 157 161 163 169 160 143 115 127 127
265 272 233 228 239 215 221 232 228 214 194 260 239 227 283 274 272 269 248 229 226 211 190 179 176 179 178 173 169 166 163 162 160 162 165 163 163 156 143 140 135 132 118 129
270 275 229 227 252 213 205 67 34 46 122 250 223 195 278 264 255 272 252 222 214 206 180 169 157 146 143 149 157 159 161 164 164 164 166 167 165 159 152 155 157 157 142 122
310 294 319 43 49 7 90 103 33 328 261 247 199 191 253 275 286 247 222 210 195 172 155 146 144 149 151 153 160 163 164 167 167 165 168 168 167 165 167 167 169 163 157 157
292 277 254 277 192 206 214 161 172 209 226 266 227 217 247 316 342 360 46 172 130 143 150 153 165 165 163 165 166 165 169 169 165 166 168 164 160 165 170 170 170 169 169 167
210 259 301 294 278 163 181 206 189 158 216 245 247 267 294 16 11 24 38 57 64 191 168 159 156 160 163 173 176 172 170 167 166 166 162 161 160 163 164 160 159 163 159 155
190 252 273 290 10 8 169 164 107 149 190 241 256 247 261 302 307 327 345 326 304 356 124 137 149 154 162 171 169 160 166 165 162 160 161 161 161 162 158 155 160 162 159 155
237 200 291 343 208 212 128 160 170 167 186 193 236 262 267 251 278 256 254 249 228 187 145 125 111 115 108 112 134 143 150 152 154 155 153 152 155 155 153 156 162 160 154 154
240 149 234 250 259 211 158 174 156 174 235 206 204 258 323 336 326 301 271 277 267 179 108 99 91 84 89 100 118 137 146 153 157 154 150 153 151 150 153 159 164 155 153 155
182 125 73 329 312 0 310 249 217 175 157 183 195 244 360 11 3 357 344 334 354 60 56 60 76 87 95 101 109 127 144 151 151 146 144 146 150 153 157 158 157 153 153 152
135 161 187 212 237 204 252 272 233 160 195 221 222 239 313 340 343 342 341 338 37 62 59 49 52 45 54 82 103 115 119 135 139 141 144 149 155 156 155 152 151 152 149 151
116 198 218 249 257 185 240 264 206 197 211 212 232 230 275 291 291 307 319 357 52 37 24 10 5 18 40 56 69 92 108 112 129 139 144 152 147 145 145 144 144 142 146 151
104 194 226 277 247 167 294 302 242 233 238 232 254 273 292 305 333 345 337 6 36 321 305 312 309 302 16 89 96 98 103 111 125 137 143 142 144 144 143 142 143 142 143 147
173 162 186 261 302 10 293 264 229 211 220 198 233 255 299 319 322 309 293 312 325 315 304 286 270 240 223 192 150 139 133 115 123 133 136 141 143 144 146 146 144 145 146 144
169 158 173 247 41 245 243 225 178 185 236 225 238 275 285 284 297 309 342 335 329 327 326 312 295 271 139 109 110 113 114 118 120 130 139 144 147 147 147 147 150 151 152 154
173 161 159 162 225 268 282 275 167 200 259 250 247 283 326 343 352 334 3 354 318 315 316 320 325 110 90 90 109 115 112 116 118 125 142 152 154 153 151 153 154 153 149 150
61 97 143 159 201 243 254 270 274 154 271 284 239 250 305 37 339 286 342 348 345 358 8 15 33 71 78 64 95 113 119 120 133 149 157 155 153 154 158 160 153 142 144 152
67 74 162 196 227 262 270 292 100 159 260 280 219 225 211 211 234 282 341 352 4 16 20 33 48 63 65 69 97 108 113 129 137 128 129 138 147 152 154 150 143 140 140 135
177 179 196 178 214 254 264 121 175 224 304 314 265 235 206 221 332 2 6 17 25 25 28 38 49 49 47 62 100 109 112 93 94 103 108 122 134 145 141 138 138 137 141 144
198 198 199 199 213 248 177 191 230 186 276 296 284 271 153 166 221 340 14 18 22 30 34 42 52 51 39 42 81 112 90 85 98 102 105 108 114 124 133 143 148 146 155 161
265 225 196 238 254 252 249 276 304 286 259 290 292 178 147 168 189 38 46 32 25 28 38 45 55 53 30 21 36 56 78 92 103 112 113 115 114 120 129 140 156 166 177 183
234 200 220 247 267 287 276 264 267 3 55 51 44 53 124 131 118 83 57 34 22 28 37 48 51 45 27 23 24 25 52 97 104 115 116 114 115 122 117 130 173 187 202 197
216 202 207 236 232 221 247 229 182 156 194 158 95 38 41 126 138 102 94 68 47 47 43 40 36 32 23 27 24 17 22 80 114 110 109 116 117 116 113 103 37 326 273 257
Height
1474 1479 1480 1479 1479 1479 1480 1481 1480 1478 1478 1481 1481 1479 1476 1475 1474 1474 1475 1475 1476 1477 1479 1481 1483 1486 1488 1490 1493 1496 1499 1501 1503 1505 1507 1509 1512 1514 1516 1518 1519 1520 1522 1523
1478 1478 1475 1476 1477 1478 1479 1480 1480 1478 1477 1479 1480 1477 1473 1472 1471 1471 1471 1472 1473 1475 1476 1477 1479 1482 1484 1487 1489 1493 1495 1498 1500 1502 1504 1507 1509 1511 1513 1516 1517 1518 1519 1521
1475 1475 1473 1474 1475 1476 1477 1478 1478 1478 1478 1478 1480 1476 1471 1469 1468 1468 1469 1470 1471 1472 1473 1474 1476 1478 1481 1483 1486 1489 1492 1495 1498 1499 1502 1504 1507 1508 1510 1512 1514 1516 1518 1518
1475 1473 1472 1473 1474 1474 1476 1475 1476 1477 1481 1484 1481 1483 1471 1469 1467 1467 1467 1467 1468 1469 1470 1471 1473 1475 1477 1480 1483 1486 1489 1492 1495 1497 1498 1500 1502 1504 1506 1508 1510 1512 1515 1516
1476 1473 1473 1473 1472 1472 1473 1473 1475 1476 1480 1484 1483 1485 1474 1469 1467 1466 1465 1465 1466 1466 1468 1469 1470 1473 1475 1478 1481 1483 1486 1489 1491 1494 1496 1498 1500 1502 1504 1506 1508 1510 1511 1513
1475 1473 1472 1472 1472 1472 1473 1475 1476 1480 1483 1484 1480 1485 1475 1471 1466 1464 1464 1464 1464 1465 1466 1467 1469 1471 1473 1476 1478 1481 1483 1486 1488 1490 1492 1495 1497 1499 1501 1503 1505 1507 1509 1510
1477 1474 1472 1472 1473 1473 1474 1479 1484 1483 1484 1480 1477 1479 1475 1467 1465 1463 1463 1463 1464 1464 1465 1466 1467 1469 1471 1473 1475 1478 1480 1483 1485 1487 1489 1491 1494 1496 1498 1500 1502 1504 1505 1507
1481 1479 1474 1473 1474 1475 1476 1476 1482 1482 1481 1480 1477 1476 1471 1466 1464 1462 1462 1463 1464 1464 1464 1465 1466 1468 1470 1471 1473 1475 1478 1480 1482 1484 1486 1489 1491 1493 1496 1498 1500 1501 1503 1505
1481 1478 1474 1472 1472 1473 1476 1477 1476 1481 1483 1483 1477 1474 1469 1466 1464 1463 1463 1463 1463 1464 1464 1465 1466 1467 1469 1470 1472 1473 1475 1477 1480 1482 1484 1486 1488 1490 1492 1494 1497 1498 1500 1502
1478 1480 1475 1474 1472 1473 1474 1475 1480 1481 1479 1477 1475 1475 1472 1468 1466 1465 1463 1463 1463 1463 1464 1465 1466 1466 1468 1469 1470 1472 1474 1476 1478 1480 1481 1483 1485 1488 1490 1492 1494 1495 1497 1499
1477 1479 1479 1476 1476 1475 1476 1477 1477 1479 1479 1477 1477 1477 1470 1468 1466 1465 1464 1463 1463 1463 1463 1464 1465 1466 1467 1468 1469 1470 1472 1474 1475 1477 1479 1481 1483 1485 1487 1489 1491 1492 1494 1496
1477 1479 1480 1477 1475 1474 1474 1475 1478 1479 1480 1481 1479 1481 1469 1468 1466 1465 1464 1463 1463 1463 1463 1463 1464 1465 1466 1467 1468 1469 1470 1472 1473 1475 1477 1479 1481 1483 1484 1486 1488 1489 1491 1493
1476 1479 1480 1476 1478 1478 1477 1476 1476 1477 1478 1480 1480 1478 1470 1468 1467 1465 1464 1463 1463 1463 1463 1463 1463 1464 1464 1465 1466 1467 1468 1470 1471 1473 1474 1476 1478 1480 1481 1483 1485 1486 1488 1490
1473 1478 1479 1477 1472 1475 1478 1477 1476 1476 1478 1478 1476 1474 1472 1470 1468 1467 1465 1464 1463 1462 1462 1462 1462 1463 1463 1464 1465 1465 1467 1468 1469 1471 1472 1473 1475 1477 1478 1480 1482 1483 1485 1487
1474 1479 1477 1475 1473 1474 1476 1475 1475 1476 1474 1475 1472 1474 1470 1469 1468 1467 1465 1464 1463 1462 1462 1462 1462 1462 1462 1462 1463 1464 1465 1466 1467 1469 1470 1471 1473 1474 1476 1477 1479 1481 1482 1484
1475 1478 1477 1476 1472 1473 1476 1475 1474 1474 1474 1474 1473 1472 1468 1468 1467 1466 1464 1463 1462 1461 1461 1461 1461 1461 1460 1461 1461 1462 1463 1464 1465 1466 1467 1469 1470 1472 1473 1475 1476 1478 1479 1481
1476 1478 1478 1477 1474 1472 1477 1475 1473 1474 1474 1473 1473 1470 1467 1467 1465 1465 1464 1463 1461 1461 1460 1460 1459 1459 1459 1459 1460 1460 1461 1462 1463 1464 1465 1466 1468 1469 1471 1472 1474 1475 1476 1478
1475 1476 1479 1479 1480 1481 1473 1470 1470 1472 1472 1471 1469 1467 1467 1465 1464 1463 1462 1461 1460 1459 1459 1458 1458 1458 1458 1458 1458 1459 1459 1460 1461 1462 1463 1464 1466 1467 1469 1470 1471 1473 1474 1475
1473 1475 1480 1483 1483 1477 1471 1469 1471 1472 1470 1469 1468 1466 1465 1464 1463 1461 1460 1460 1459 1459 1458 1457 1457 1456 1456 1456 1457 1457 1458 1458 1459 1460 1461 1462 1464 1465 1466 1468 1469 1470 1472 1473
1474 1476 1480 1483 1481 1476 1469 1468 1466 1469 1469 1466 1465 1465 1464 1463 1465 1462 1459 1458 1457 1457 1456 1456 1455 1455 1455 1455 1456 1456 1456 1456 1457 1458 1459 1461 1462 1463 1464 1465 1467 1468 1469 1470
1479 1481 1483 1483 1483 1475 1470 1467 1466 1472 1467 1464 1463 1462 1463 1463 1462 1461 1458 1457 1456 1455 1455 1454 1454 1454 1454 1454 1454 1454 1454 1455 1456 1457 1458 1459 1460 1461 1462 1464 1465 1466 1467 1468
1478 1481 1483 1483 1482 1476 1467 1467 1468 1466 1463 1462 1461 1461 1461 1460 1459 1458 1457 1456 1454 1454 1453 1453 1452 1452 1453 1453 1453 1453 1453 1454 1455 1455 1456 1457 1458 1459 1460 1461 1462 1463 1464 1465
1474 1474 1474 1474 1471 1467 1465 1464 1463 1463 1462 1461 1460 1460 1459 1459 1458 1457 1456 1455 1454 1453 1453 1452 1451 1451 1452 1452 1452 1452 1453 1453 1453 1454 1454 1455 1456 1457 1458 1459 1460 1461 1462 1463
1471 1470 1471 1470 1466 1464 1463 1462 1461 1461 1460 1460 1459 1459 1458 1457 1456 1456 1455 1454 1453 1452 1451 1451 1451 1451 1451 1451 1452 1452 1452 1452 1452 1452 1453 1453 1454 1455 1456 1457 1458 1459 1459 1460
1467 1468 1467 1466 1463 1462 1460 1460 1459 1459 1458 1458 1457 1457 1456 1455 1455 1454 1453 1453 1452 1451 1451 1451 1450 1450 1450 1450 1451 1451 1451 1451 1450 1451 1451 1452 1452 1453 1454 1455 1456 1457 1458 1458
1462 1463 1464 1460 1458 1458 1457 1457 1457 1457 1456 1456 1455 1455 1455 1454 1453 1452 1452 1452 1452 1451 1451 1450 1450 1450 1450 1450 1450 1450 1450 1450 1449 1449 1450 1450 1450 1451 1452 1453 1454 1455 1456 1456